Retour au catalogue

ONEWEB-0647

ActifCommunicationsPO
NORAD 56079·PAYLOAD·🇬🇧 United Kingdom

Lancé Mar 26, 2023 depuis Satish Dhawan Space Centre

Loading…

Prochains Passages (prochaines 24 heures)

TLE

FraisSource: CelesTrak SupGP

Époque: Sep 15, 2026, 04:30 UTC

1 56079C 23043AK  26258.18764306 -.00000573  00000+0 -15237-2 0  2581
2 56079  87.8983 241.2791 0002222  86.3878 324.0462 13.15547692    11

Suivez ONEWEB-0647 en temps réel avec AllMySat

Download on the App Store